Back to catalog

STARLINK-30940

AliveCommunicationsVLEO
NORAD 58409·PAYLOAD·🇺🇸 United States

Launched Nov 22, 2023 from Cape Canaveral Space Force Station

Loading…

Next Passes (next 24 hours)

TLE

FreshSource: CelesTrak SupGP

Epoch: Sep 14, 2026, 21:21 UTC

1 58409C 23180H   26257.89006944  .00011160  00000+0  40426-3 0  2576
2 58409  43.0010 278.9643 0001878 269.4407 221.6828 15.27570011    10

Track STARLINK-30940 in real time with AllMySat

Download on the App Store